Dewpoint
58 60 54 43 29 30 23 22 34 38 50 54 56 54 55 57 53 46 64 66 69 70 72 73 74 73 72 72 71 70 69 68 68 67 67 68 68 68 69 69 70 71 68 66 66 67 68 68 69
57 55 47 40 23 22 22 29 26 36 53 55 52 56 56 56 60 62 63 68 69 70 71 72 74 73 72 72 72 71 70 69 68 68 68 68 68 68 69 69 69 70 70 67 67 67 67 68 68
59 53 41 35 29 21 16 21 32 45 54 48 50 52 55 56 58 60 63 68 69 70 71 72 73 73 72 72 71 71 71 71 70 69 68 68 68 67 67 67 68 69 70 69 68 67 67 67 68
56 46 38 31 28 30 20 33 43 41 47 50 51 51 54 56 56 60 68 69 68 69 70 72 73 73 73 72 72 71 71 71 71 71 71 70 70 70 70 69 69 69 70 70 69 68 68 68 68
47 40 31 29 27 27 27 37 40 38 43 47 49 51 53 54 57 67 67 68 68 69 70 71 72 72 72 71 70 70 70 70 70 70 70 70 71 71 71 71 71 70 69 70 70 70 70 69 68
44 34 27 23 23 24 38 38 36 40 46 50 51 52 53 55 58 59 64 64 65 65 65 67 70 71 71 70 70 70 70 70 70 70 70 70 70 70 71 71 71 71 70 70 69 70 70 70 70
41 30 25 20 20 32 32 32 36 36 41 47 50 51 54 53 54 54 52 52 51 49 46 49 48 55 58 64 65 64 63 67 68 68 68 69 69 69 69 70 70 70 70 70 70 70 70 70 70
42 31 22 19 26 33 30 29 31 31 30 33 47 52 52 54 52 49 47 45 44 45 45 43 44 45 43 41 57 56 56 58 61 59 59 59 62 65 67 68 67 67 69 70 70 70 70 70 70
38 31 24 22 28 28 30 27 27 31 35 43 46 52 53 54 49 45 43 43 43 45 45 45 46 46 46 45 48 49 53 52 51 50 52 49 47 49 50 55 58 60 60 62 67 69 69 69 68
35 30 28 29 30 29 29 27 26 30 34 44 49 51 52 49 46 45 43 42 41 41 45 46 47 47 47 46 46 46 47 47 45 45 45 46 45 46 50 51 55 55 55 56 58 60 65 67 67
33 30 31 29 31 33 29 27 27 27 28 39 48 50 49 47 46 45 43 42 40 41 47 47 47 47 47 46 46 46 47 48 47 46 46 46 46 47 47 47 48 49 52 51 52 54 59 63 65
29 31 30 31 32 31 28 27 25 27 27 30 50 50 47 47 47 47 44 40 40 43 46 48 47 46 46 46 46 46 46 48 47 47 48 48 47 47 47 47 47 48 49 49 50 52 51 53 57
27 29 30 32 31 29 27 24 25 25 27 32 46 45 46 46 45 43 42 41 41 44 47 47 46 45 45 45 46 46 47 48 48 49 49 49 49 49 48 48 49 49 49 49 49 49 49 49 51
29 29 30 30 29 29 25 24 25 25 30 37 41 41 42 42 42 39 39 39 42 44 47 47 46 45 45 45 46 46 47 48 49 49 50 50 51 50 49 49 49 49 49 49 49 49 49 49 50
29 26 27 29 30 25 30 25 24 24 27 33 35 36 37 37 38 35 37 38 42 43 46 47 46 45 44 45 46 47 48 49 49 50 50 50 51 51 51 50 50 50 50 50 50 50 50 50 50
26 26 21 27 29 29 25 20 25 24 22 27 29 31 31 32 33 34 33 38 40 43 45 45 45 45 44 45 46 47 49 49 48 49 50 49 50 51 51 51 51 51 51 51 50 50 50 50 50
22 22 23 24 29 28 24 17 23 23 21 21 21 23 24 26 27 30 32 35 39 42 44 44 44 43 45 45 47 48 47 47 47 47 48 48 50 50 50 50 52 52 51 51 50 50 50 49 50
19 22 22 20 25 24 22 22 23 24 22 21 21 22 22 25 28 29 31 36 41 43 43 43 43 44 45 45 47 47 45 45 46 47 47 48 49 49 49 50 51 52 52 51 50 50 50 50 50
19 21 21 26 27 19 17 20 21 22 24 24 24 23 22 23 26 28 31 38 41 41 42 42 43 44 44 45 44 44 44 45 45 47 48 47 48 48 49 50 51 51 51 51 51 50 50 50 50
21 18 20 22 26 21 22 23 24 25 23 22 22 22 23 23 23 25 32 38 41 41 41 42 42 43 44 46 46 45 45 45 45 47 46 47 48 48 47 48 49 50 51 50 50 50 50 50 50
24 18 21 20 24 25 20 13 11 18 28 23 24 23 24 24 25 26 35 38 41 41 41 42 42 43 43 46 46 45 45 44 44 44 45 46 47 47 49 47 47 50 50 49 49 51 51 50 50
17 27 25 24 16 9 20 13 8 18 27 22 25 24 32 30 33 37 38 40 40 41 42 42 42 42 43 45 45 43 43 42 43 44 45 46 46 46 47 48 47 46 47 48 50 51 52 52 50
22 27 25 25 23 19 16 16 12 25 23 23 26 29 32 33 34 38 39 40 41 41 41 42 41 42 43 43 45 45 43 44 44 44 44 44 45 46 47 48 48 47 48 47 47 50 52 52 51
29 27 27 27 20 11 18 18 18 23 25 25 28 29 33 35 38 39 40 40 41 42 42 42 42 43 43 43 43 44 43 43 43 43 43 43 44 45 46 47 47 48 48 48 49 50 50 50 51
27 21 14 11 13 10 24 20 23 25 25 26 29 29 30 36 36 37 38 40 41 41 42 42 43 43 43 43 43 43 43 43 43 43 43 43 43 43 44 45 45 47 47 49 50 49 49 51 51
25 20 14 1 14 16 20 19 24 25 31 34 32 31 34 35 36 36 38 39 40 41 42 42 43 43 43 44 44 44 43 43 44 44 44 44 44 43 44 44 45 46 47 48 49 49 50 52 51
26 21 25 19 17 15 17 20 24 30 31 32 32 34 33 33 35 36 38 39 40 40 41 41 42 43 43 44 44 44 44 43 43 43 44 44 44 44 44 44 44 45 46 47 47 48 50 49 50
29 27 18 20 9 9 13 16 20 23 24 31 32 32 34 36 37 38 39 40 41 41 42 42 42 43 43 43 44 44 43 43 43 43 43 43 44 44 43 42 43 44 45 46 46 47 47 46 45
28 24 27 23 20 13 7 14 23 25 29 30 32 33 32 33 34 35 36 34 32 32 34 36 37 39 40 41 42 43 43 43 43 42 43 43 43 43 42 42 42 42 43 44 43 43 44 43 43
24 24 25 18 10 20 15 17 23 32 32 26 24 24 23 23 24 25 24 25 26 27 28 29 32 33 34 36 39 42 43 43 43 42 42 42 42 42 41 41 40 41 42 42 42 42 42 41 41
Lifted_Index
5 5 5 4 3 3 4 4 5 4 1 -0 -0 -0 -0 -1 -0 -1 -2 -3 -3 -3 -3 -4 -4 -4 -3 -3 -2 -2 -1 -1 -0 -0 -0 -1 -1 -1 -1 -1 -1 -2 -1 -0 0 0 0 -0 -0
5 5 5 4 3 3 4 4 5 3 1 -1 -0 -0 -0 -1 -1 -1 -2 -3 -3 -3 -3 -3 -4 -4 -3 -3 -2 -2 -2 -1 -1 -0 -0 -0 -1 -1 -1 -1 -1 -1 -1 -0 0 0 0 0 -0
4 5 5 5 4 4 4 4 4 2 0 -1 -0 -0 -0 -0 -1 -1 -2 -3 -3 -3 -3 -3 -3 -3 -3 -3 -3 -2 -2 -2 -1 -1 -1 -1 -1 -1 -1 -1 -0 -1 -1 -1 -0 0 1 1 1
4 5 6 5 5 5 5 5 3 1 0 -0 -0 -0 0 0 -1 -1 -2 -3 -3 -3 -3 -3 -3 -3 -3 -2 -2 -2 -2 -2 -2 -1 -1 -1 -1 -1 -1 -1 -0 -0 -1 -1 -1 -0 0 1 1
5 5 6 5 5 5 6 5 3 1 1 0 -0 -0 0 -0 -1 -2 -3 -3 -3 -3 -3 -3 -3 -2 -2 -2 -2 -1 -1 -1 -1 -1 -1 -1 -1 -1 -1 -1 -1 -1 -1 -1 -1 -1 -0 0 0
6 6 5 4 4 5 5 4 3 2 1 1 0 -0 -0 -0 -1 -2 -3 -3 -3 -2 -2 -2 -2 -1 -1 -1 -0 0 0 -0 -0 -0 -0 -0 -0 -1 -1 -1 -1 -1 -1 -1 -1 -1 -1 -1 -0
6 6 5 4 4 4 4 4 3 3 2 1 1 0 0 -0 -1 -2 -3 -3 -2 -2 -1 -1 -0 0 1 2 3 4 4 3 3 3 3 2 2 1 1 0 0 -0 -0 -0 -0 -1 -1 -1 -1
7 6 5 5 4 4 4 3 3 3 2 2 1 1 1 -0 -1 -1 -2 -2 -2 -1 -1 0 1 3 4 5 6 7 8 8 8 8 8 7 6 5 4 3 2 2 1 0 -0 -0 -1 -1 -0
6 6 6 5 5 4 3 3 3 3 3 2 2 2 1 0 -0 -1 -0 -0 -0 0 1 2 4 6 7 8 9 11 12 12 12 12 12 11 10 9 8 7 6 5 3 2 1 1 0 -0 -0
6 6 6 6 5 4 4 4 4 3 3 3 2 2 1 0 0 0 1 1 2 2 4 6 8 10 11 12 12 13 13 13 13 13 13 13 12 11 10 9 9 8 7 6 4 3 2 1 0
6 7 7 7 6 5 4 4 4 4 4 3 3 2 1 0 1 1 1 2 3 5 8 10 11 12 13 13 14 14 14 14 13 13 13 12 12 12 11 11 11 10 10 9 8 7 5 4 3
6 7 7 7 7 6 5 4 4 4 4 4 3 2 1 1 1 2 2 3 6 8 10 11 12 13 13 14 14 14 14 14 14 13 13 12 11 11 11 11 11 11 11 11 10 10 9 7 6
6 6 6 7 7 7 6 5 4 4 5 4 4 3 2 2 2 3 4 6 8 10 11 11 12 13 13 14 14 14 14 13 13 12 12 11 11 11 11 11 11 11 11 11 11 11 11 10 9
5 5 5 6 6 6 6 5 5 5 5 5 5 5 4 4 4 5 6 8 10 11 11 11 12 13 13 14 14 13 13 13 12 11 11 11 10 10 10 10 11 11 11 11 11 11 11 11 11
4 4 5 5 6 6 6 5 5 6 6 6 6 6 7 7 7 8 9 10 11 11 11 11 12 13 13 13 13 13 13 12 12 11 11 11 11 11 11 11 11 11 11 11 11 11 11 11 11
4 4 4 5 5 6 6 5 6 6 6 6 7 7 7 8 8 9 10 11 11 11 11 11 12 12 12 13 13 13 13 13 13 12 12 12 12 12 12 11 11 11 11 11 11 11 11 11 11
4 4 4 4 5 6 5 5 5 6 7 6 7 7 8 8 8 9 10 11 11 11 11 11 11 11 12 12 13 13 13 14 14 14 13 13 13 13 12 12 11 11 11 11 10 10 10 9 9
4 4 4 4 5 5 4 4 5 6 6 6 7 7 8 8 9 10 10 11 11 12 11 11 11 11 11 12 13 14 14 14 15 14 14 14 13 13 12 12 11 11 10 10 10 9 8 8 8
3 3 3 4 4 4 4 4 4 5 5 6 6 7 8 8 9 10 11 11 11 11 11 11 11 11 12 13 14 14 14 14 15 15 14 14 13 12 12 11 11 10 10 9 9 8 8 8 8
3 3 3 3 4 4 3 3 4 5 5 6 6 7 7 8 9 10 10 11 11 11 11 11 11 11 12 13 14 14 13 13 14 14 14 14 13 12 11 11 10 10 10 9 9 9 8 8 8
3 3 3 3 3 3 3 2 3 4 5 6 6 7 7 8 9 9 10 10 10 10 10 11 11 11 13 13 13 13 13 13 13 13 14 14 13 12 11 11 10 10 10 10 10 9 9 9 8
3 3 3 3 3 2 2 2 2 3 4 5 6 7 8 8 9 9 9 9 10 10 10 10 11 12 13 13 12 12 12 12 12 12 13 13 13 13 12 11 10 10 11 11 10 10 9 9 8
4 5 4 4 3 2 2 2 2 3 4 5 6 7 8 9 9 9 10 10 10 10 10 10 11 12 12 12 11 11 11 12 12 12 12 12 12 13 12 12 11 11 11 11 11 10 10 9 9
6 5 4 3 3 2 2 3 3 3 4 5 6 7 8 9 9 9 9 9 10 10 10 10 11 11 12 11 11 11 11 11 11 11 11 12 12 12 12 13 12 12 11 10 10 10 10 9 9
6 5 3 2 1 2 3 3 3 4 5 6 7 7 8 8 9 9 9 9 9 10 10 10 10 11 11 11 11 11 10 10 11 11 11 11 11 11 12 13 13 12 11 10 10 10 9 9 9
6 5 3 2 1 2 3 3 4 5 6 7 7 7 8 8 8 8 9 9 9 9 9 10 10 10 10 10 10 10 10 10 10 10 11 11 11 11 12 13 14 13 11 9 9 9 10 9 9
6 5 5 3 2 2 2 3 4 5 6 7 8 8 8 8 8 8 8 9 9 9 9 9 9 9 9 9 9 9 9 9 9 10 10 11 11 11 12 13 14 14 12 10 10 10 10 10 10
6 6 5 4 2 1 2 3 4 5 6 7 8 8 8 8 8 8 8 9 9 10 10 10 10 10 10 10 10 10 10 10 10 10 10 11 11 11 12 13 14 14 13 11 10 10 10 10 10
6 6 5 4 3 2 2 3 5 6 7 7 8 8 8 8 8 8 9 10 10 10 10 10 10 10 10 10 11 11 11 11 10 10 10 10 11 11 11 12 13 14 14 12 11 11 10 10 10
6 6 5 5 4 3 3 3 5 7 7 7 8 8 8 8 8 8 9 10 10 10 10 10 9 9 9 10 11 11 11 11 11 10 10 10 10 11 11 11 12 13 14 13 12 11 11 10 10